EHI
29 30 27 22 21 22 23 22 20 20 22 21 20 19 18 18 18 16 14 13 14 14 13 11 10 9 10 12 12 10 6 5 5 6 7 11 12 10 9 7 3 2 2
31 30 28 24 22 23 23 22 22 22 23 23 22 22 20 19 18 17 15 14 14 15 13 12 10 10 11 12 12 10 7 6 6 6 9 11 12 11 10 8 4 3 3
30 30 28 25 24 24 24 24 23 24 24 24 23 22 21 18 17 16 16 15 14 14 13 11 10 10 13 14 13 11 10 9 9 8 11 14 15 13 13 9 6 5 3
30 30 28 24 24 27 27 27 26 24 24 22 21 20 19 16 16 17 17 16 15 13 11 10 9 10 12 13 13 13 14 15 13 10 12 16 17 17 17 12 8 6 5
32 31 27 24 25 29 32 33 32 28 24 23 22 21 18 15 15 17 19 18 16 13 10 9 8 7 6 7 8 10 13 15 14 12 12 15 17 19 18 15 10 9 9
34 31 28 26 28 33 36 38 39 36 31 28 27 24 20 14 11 13 16 17 15 12 10 9 7 4 3 4 3 3 5 8 10 11 12 14 17 18 18 14 11 10 8
35 33 32 33 35 38 38 39 41 41 38 36 33 28 23 15 9 7 9 12 12 11 10 9 7 5 5 5 3 2 3 4 6 9 11 12 15 18 17 14 11 8 6
36 37 39 41 43 43 41 39 41 41 40 39 36 30 24 16 9 4 4 8 10 10 9 9 9 7 6 5 4 5 8 7 5 6 6 7 10 13 13 10 8 7 5
37 39 43 46 48 46 43 40 39 40 39 37 34 29 24 18 10 3 4 8 10 10 10 10 9 7 5 4 6 9 10 8 4 2 2 2 3 5 5 4 4 5 5
38 39 41 44 46 45 43 40 38 38 37 34 31 28 25 20 11 3 4 10 14 15 16 14 9 5 2 2 6 8 8 6 2 0 0 0 0 0 1 2 2 2 3
34 35 36 37 39 38 37 36 35 36 35 32 27 24 21 17 10 3 3 9 15 19 20 16 8 2 0 1 2 4 4 3 1 0 0 0 0 0 1 2 2 2 1
27 28 29 29 29 29 29 30 31 32 31 27 21 17 15 14 9 4 2 4 10 16 17 12 6 1 0 0 0 1 1 1 0 0 0 0 0 0 1 2 3 3 2
23 24 24 24 23 24 26 27 28 28 25 20 16 13 12 12 9 4 1 1 5 9 10 6 2 0 0 0 0 0 0 0 0 0 0 0 0 1 2 3 3 3 3
21 23 23 22 22 22 23 23 23 23 19 14 11 10 11 11 7 3 1 1 2 4 4 2 0 0 0 0 0 0 0 0 0 0 0 0 0 1 2 3 3 2 2
19 20 20 19 19 18 18 16 16 16 14 10 8 8 9 8 5 3 2 2 2 2 2 1 0 0 0 0 0 0 0 0 0 0 0 0 0 0 1 2 3 3 1
16 16 17 17 17 17 15 13 10 9 8 6 5 6 7 5 3 1 1 1 1 1 1 1 0 0 0 0 0 0 0 0 0 0 0 0 0 0 0 1 3 2 1
13 14 16 17 18 17 15 13 11 7 4 3 3 3 3 2 1 0 0 0 0 0 1 1 1 0 0 0 0 0 0 0 0 0 0 0 0 0 0 0 1 2 2
11 12 14 17 19 17 15 15 14 10 6 4 2 1 1 1 0 0 0 0 0 0 1 2 2 1 0 0 0 0 0 0 0 0 0 0 0 0 0 0 1 2 2
9 10 12 16 18 16 15 14 14 11 9 6 3 1 0 0 0 0 0 0 0 0 0 1 1 1 0 0 0 0 0 0 0 0 0 0 0 0 0 0 0 1 1
8 8 9 12 15 15 13 12 11 10 9 7 4 2 1 1 1 0 0 0 0 0 0 0 0 0 0 0 0 0 0 0 0 0 0 0 0 0 0 0 0 0 0
7 6 6 9 12 13 11 10 10 10 9 8 5 2 1 2 2 1 0 0 0 0 0 0 0 0 0 0 0 0 0 0 0 0 0 0 0 0 0 0 0 0 0
6 5 5 7 10 10 9 9 10 10 9 8 5 3 1 2 2 1 0 0 0 0 0 0 0 0 0 0 0 0 0 0 0 0 0 0 0 0 0 0 0 0 0
5 4 3 4 6 7 8 9 10 9 9 7 5 3 1 1 1 1 0 0 0 0 0 0 0 0 0 0 0 0 0 0 0 0 0 0 0 0 0 0 0 0 0
2 2 1 1 3 5 8 9 10 9 8 7 5 2 0 0 0 0 0 0 0 0 0 0 0 0 0 0 0 0 0 0 0 0 0 0 0 0 0 0 0 0 0
0 0 0 2 3 6 9 9 9 8 6 6 4 2 1 1 1 1 1 0 0 0 0 0 0 0 0 0 0 0 0 0 0 0 0 0 0 0 0 0 0 0 0
0 0 1 3 5 7 9 9 8 6 5 4 4 3 2 2 2 2 2 1 0 0 0 0 0 0 0 0 0 0 0 0 0 0 0 0 0 0 0 0 0 0 0
Wind_Speed
11 10 10 9 9 8 7 7 7 6 6 6 5 5 5 4 4 4 4 4 4 4 4 4 4 4 4 3 4 4 4 4 5 4 3 1 2 4 2 4 4 4 4
11 10 10 9 9 9 8 8 7 7 7 6 6 6 5 5 4 4 5 4 5 5 4 4 5 4 4 5 4 4 4 4 5 5 4 3 3 4 4 5 4 4 4
10 10 10 10 9 9 8 8 7 7 7 6 6 6 5 5 5 5 5 5 5 5 5 5 5 5 5 4 5 5 4 4 4 5 5 3 3 3 4 4 4 4 5
10 10 10 10 10 9 8 8 8 7 7 7 6 6 6 6 6 5 5 5 5 5 5 5 5 6 6 5 5 5 5 5 5 5 5 4 3 3 3 4 4 3 4
10 10 10 9 9 8 8 8 8 8 8 7 7 7 7 6 6 5 6 6 5 6 5 5 5 4 4 5 5 4 5 5 5 5 5 5 4 3 3 4 4 3 3
9 9 9 9 9 8 8 8 8 8 8 7 8 7 8 6 3 4 6 6 6 6 5 5 4 5 3 4 4 4 5 6 6 5 5 5 5 4 3 4 4 4 3
8 8 9 9 8 8 8 8 8 8 7 8 8 8 7 5 4 4 6 7 6 6 5 5 5 2 4 3 4 5 5 5 6 7 6 6 5 4 5 6 4 5 4
8 8 8 8 8 7 7 7 7 6 6 6 7 7 7 6 5 6 6 7 6 5 5 5 4 4 3 3 4 4 4 4 5 6 5 6 5 4 5 6 5 5 5
7 7 7 7 7 7 7 7 6 5 5 6 6 6 6 5 5 6 6 6 5 5 5 4 4 4 1 2 3 4 4 4 3 2 3 3 3 3 4 5 5 5 4
5 6 6 6 6 6 6 5 5 5 5 5 4 5 5 4 4 5 6 5 4 4 3 3 1 1 0 1 3 4 4 4 3 3 4 5 5 5 6 6 5 5 5
3 4 5 5 5 5 5 5 5 5 4 4 4 3 3 3 4 4 5 4 4 4 2 2 1 3 2 1 3 3 3 4 4 4 3 3 4 3 4 4 4 5 5
3 4 4 4 4 4 4 4 4 4 5 4 3 3 2 2 2 3 4 4 4 3 2 1 1 3 2 1 1 1 2 4 3 3 3 3 3 3 2 3 3 4 5
3 3 4 4 4 4 4 4 4 4 4 3 3 3 2 2 2 3 4 3 2 2 0 3 2 2 2 2 2 3 4 3 3 3 3 3 2 2 3 2 3 4 5
3 3 3 4 4 4 3 3 3 3 3 3 3 3 2 2 2 2 3 4 4 3 2 3 4 4 3 1 2 2 3 2 3 3 3 2 2 3 3 3 3 3 4
3 3 3 4 4 4 3 2 2 1 1 2 2 2 2 2 1 2 0 1 1 1 1 2 2 2 1 1 1 1 2 1 2 3 3 3 3 3 3 3 3 4 4
3 3 3 3 3 4 4 4 4 3 4 3 2 0 2 3 4 4 3 3 2 1 2 2 1 1 1 1 1 1 1 2 2 2 3 3 3 3 3 3 3 3 4
3 3 3 3 3 4 4 4 4 3 4 4 3 3 3 4 5 5 4 3 2 2 2 1 1 1 1 1 1 1 2 2 2 3 3 3 3 3 3 3 3 3 4
3 3 3 3 3 3 4 4 4 4 3 3 4 5 5 5 5 5 5 4 3 3 3 2 2 2 2 2 2 2 2 2 2 3 3 3 3 3 3 4 4 4 4
3 3 3 3 3 3 3 3 3 3 3 3 4 5 5 6 6 6 5 3 2 2 2 2 1 2 2 2 2 2 3 3 3 3 3 3 3 3 3 4 4 4 4
2 3 2 3 3 3 3 3 3 3 3 3 3 3 4 4 3 4 4 3 2 2 1 1 1 1 2 2 2 3 3 2 3 3 3 3 4 4 4 4 4 4 4
2 4 4 3 3 3 3 3 3 3 3 2 2 2 1 2 2 3 3 2 2 1 1 1 1 1 2 2 3 3 4 3 3 3 4 4 4 4 4 4 5 4 4
3 3 3 3 3 3 3 3 3 3 3 2 2 3 4 3 2 2 2 2 2 1 1 1 2 1 2 3 3 3 4 3 3 4 4 4 4 4 4 4 4 4 4
2 3 3 3 3 3 3 3 3 3 2 2 2 2 3 2 2 2 2 2 1 1 1 2 2 2 2 2 2 3 3 3 4 4 5 5 5 4 4 4 4 4 4
3 3 3 3 3 3 3 2 2 2 2 2 2 2 2 2 2 2 2 1 2 2 2 2 2 2 3 3 2 2 2 4 5 4 5 5 5 4 4 4 5 4 4
3 3 3 3 3 3 3 3 2 2 2 2 2 2 2 2 2 2 2 2 2 2 2 2 2 2 3 3 3 2 3 3 4 6 5 5 5 4 4 4 4 4 4
3 3 2 2 2 2 2 2 2 2 2 2 2 2 2 2 2 2 2 2 2 2 2 2 2 3 3 3 1 1 1 1 3 5 6 4 4 3 4 4 4 4 4
Wind_Direction
193 194 197 194 196 199 202 204 205 206 202 211 216 219 220 219 219 222 237 232 238 242 246 247 253 263 262 253 247 248 250 258 260 264 262 242 246 270 251 244 242 232 200
189 190 193 192 193 196 198 203 206 207 209 208 211 215 218 216 220 224 235 236 238 243 250 257 259 255 255 261 258 257 256 252 254 262 263 250 239 251 254 254 252 241 241
186 188 191 194 193 196 198 200 205 208 211 212 211 214 220 222 223 228 232 237 239 243 247 251 255 258 260 259 257 257 255 247 242 252 255 259 250 248 250 249 254 263 260
188 189 191 195 195 195 196 198 201 206 211 214 215 217 222 226 226 230 234 236 240 246 252 257 260 258 258 258 252 254 257 255 246 249 250 248 246 246 252 253 249 238 260
190 191 193 193 193 195 197 200 202 205 210 210 215 219 225 226 227 228 236 235 237 243 247 253 259 272 295 280 272 263 258 255 250 249 250 249 246 247 251 256 258 253 242
194 194 192 191 191 195 196 197 201 205 210 209 214 220 228 233 200 224 246 245 243 245 251 253 248 232 232 241 257 277 282 267 269 266 260 261 258 251 263 265 265 258 249
194 194 192 193 195 198 199 198 202 206 209 211 215 220 225 221 200 214 240 248 246 250 250 252 258 254 247 245 223 222 241 253 255 266 267 269 266 262 263 260 261 263 265
195 193 191 193 197 199 203 205 206 207 209 214 218 220 223 215 193 204 227 239 248 250 247 245 249 252 260 265 255 247 245 242 243 246 256 266 274 278 266 265 262 252 250
194 193 193 193 196 198 202 203 204 207 210 217 221 224 227 217 192 201 223 237 240 244 244 241 243 247 344 298 255 252 253 247 227 228 265 271 295 286 279 263 254 253 255
189 189 188 190 191 196 199 199 199 203 212 220 221 228 228 225 195 198 221 237 239 243 234 223 189 221 91 273 244 249 255 263 262 237 225 227 233 227 229 249 264 264 265
182 176 180 183 184 191 190 195 197 200 202 212 212 215 222 221 184 184 219 239 238 241 232 223 146 119 127 230 260 263 274 282 265 257 241 234 231 233 231 235 262 276 278
168 172 179 185 189 181 178 188 194 194 194 196 191 202 196 188 171 179 204 231 262 236 233 226 113 121 142 216 248 289 277 266 255 251 255 257 256 257 259 257 255 268 278
161 166 172 179 184 186 186 184 191 198 202 189 191 195 187 170 143 155 179 199 228 234 167 78 106 153 178 195 199 230 236 247 258 260 263 269 280 288 279 257 244 248 253
156 166 169 170 175 175 185 188 199 199 198 196 196 194 173 160 152 155 170 174 173 181 153 137 163 189 211 172 203 224 247 274 281 279 280 280 280 273 268 271 262 258 259
162 172 175 169 167 166 167 165 194 172 185 206 200 190 181 176 114 73 163 187 211 106 135 195 187 175 187 198 230 256 262 255 266 279 281 283 279 279 278 278 277 270 269
171 179 182 174 167 169 162 146 81 87 90 87 60 207 123 94 112 102 82 72 77 121 231 213 217 253 256 257 270 265 270 280 279 276 274 275 275 278 282 282 282 281 285
179 184 185 177 170 173 172 169 151 117 94 91 98 106 118 117 122 125 122 120 151 190 211 210 230 256 272 272 278 288 291 291 291 287 285 280 275 275 276 278 281 285 285
179 175 185 178 175 171 173 173 168 160 149 135 123 132 140 140 143 149 155 163 172 194 219 225 236 250 268 289 296 303 301 295 289 293 292 288 283 279 276 278 279 286 286
177 170 169 164 168 171 173 171 168 164 160 153 146 139 146 151 157 167 180 205 201 204 215 224 252 273 285 293 304 304 302 301 308 301 300 299 289 282 282 284 286 285 279
148 122 150 165 166 166 174 174 171 171 173 171 174 162 160 174 170 166 187 206 213 211 223 234 276 311 309 307 302 298 298 298 300 294 306 306 298 290 288 286 287 284 280
149 140 156 173 168 166 167 172 173 174 175 175 170 135 222 214 191 188 193 205 216 212 203 245 272 283 283 286 295 297 294 296 298 298 300 300 297 296 291 285 285 288 292
165 160 161 160 158 159 165 172 175 172 174 178 166 152 183 222 200 193 198 209 222 230 233 253 266 283 299 297 294 293 295 298 305 307 303 299 298 298 294 288 287 290 287
173 159 150 145 145 142 180 182 178 181 182 182 181 180 188 210 208 203 203 208 222 240 243 250 265 277 285 280 285 291 296 311 318 317 311 305 302 301 300 293 287 286 285
181 176 167 164 167 177 181 181 182 181 187 191 196 198 199 201 212 210 218 214 227 234 242 253 264 274 282 290 294 301 338 337 316 302 301 297 294 295 294 292 289 291 292
182 180 182 190 187 188 181 178 182 190 200 205 202 203 204 210 216 213 215 217 222 232 245 254 260 260 266 273 297 340 27 349 314 310 292 284 289 293 294 297 300 300 299
179 173 183 193 193 192 191 189 193 198 205 208 199 195 209 219 226 235 233 231 235 224 238 251 260 265 267 266 309 356 8 289 286 294 288 281 282 289 298 293 297 295 294